Location: Berkeley
(37.8716°N, 122.2727°W)
Time: 21:36:09
(UTC-08:00)

ISS - Visible Passes

Search period start: 16 November 2019 00:00
Search period end: 26 November 2019 00:00
Orbit: 412 x 421 km, 51.6° (Epoch: 17 November)

Date Brightness Start Highest point End Pass type
(mag) Time Alt. Az. Time Alt. Az. Time Alt. Az.
18 Nov -1.3 18:45:01 10° S 18:45:45 14° S 18:45:45 14° S visible
19 Nov -1.6 17:57:53 10° SSE 17:59:34 13° SE 17:59:52 13° ESE visible
19 Nov -0.4 19:32:38 10° WSW 19:32:48 11° WSW 19:32:48 11° WSW visible
20 Nov -3.1 18:44:13 10° SW 18:46:48 50° SSW 18:46:48 50° SSW visible
21 Nov -3.1 17:56:03 10° SSW 17:59:12 40° SE 18:00:43 24° E visible
21 Nov -0.3 19:33:16 10° W 19:33:38 12° W 19:33:38 12° W visible
22 Nov -2.5 18:44:23 10° WSW 18:47:27 36° NW 18:47:27 36° NW visible
23 Nov -3.4 17:55:43 10° WSW 17:59:02 62° NW 18:01:10 20° NE visible
24 Nov -1.5 18:45:18 10° WNW 18:47:39 18° NNW 18:47:43 18° NNW visible
25 Nov -2.0 17:56:13 10° W 17:59:02 25° NNW 18:01:18 13° NNE visible
